<?xml version="1.0" encoding="utf-8"?>
<gpx xmlns:xsi="http://www.w3.org/2001/XMLSchema-instance" xmlns:xsd="http://www.w3.org/2001/XMLSchema" version="1.1" creator="Shapelink.com" xmlns="http://www.topografix.com/GPX/1/1" xmlns:gpxtpx="http://www.garmin.com/xmlschemas/TrackPointExtension/v1">
  <metadata>
    <name>Kører 4.51 km, 2013-07-18</name>
    <desc></desc>
    <author><name>Mattias Eriksson</name></author> 
    <time>1970-01-01T01:00:00Z</time>
  </metadata>
  <trk>
    <name>Kører 4.51 km, 2013-07-18</name>
    <trkseg>
      <trkpt lat="56.280125" lon="13.288742">
        <ele>77</ele>
        <time>1970-01-01T01:00:00Z</time>
      </trkpt>
      <trkpt lat="56.280193" lon="13.288839">
        <ele>77.375</ele>
        <time>1970-01-01T01:00:00Z</time>
      </trkpt>
      <trkpt lat="56.280277" lon="13.288837">
        <ele>77.6667</ele>
        <time>1970-01-01T01:00:00Z</time>
      </trkpt>
      <trkpt lat="56.280342" lon="13.288736">
        <ele>77.9</ele>
        <time>1970-01-01T01:00:00Z</time>
      </trkpt>
      <trkpt lat="56.280384" lon="13.288577">
        <ele>78.0909</ele>
        <time>1970-01-01T01:00:00Z</time>
      </trkpt>
      <trkpt lat="56.280434" lon="13.288431">
        <ele>78.3636</ele>
        <time>1970-01-01T01:00:00Z</time>
      </trkpt>
      <trkpt lat="56.280504" lon="13.288345">
        <ele>78.6364</ele>
        <time>1970-01-01T01:00:00Z</time>
      </trkpt>
      <trkpt lat="56.280569" lon="13.28825">
        <ele>78.9091</ele>
        <time>1970-01-01T01:00:00Z</time>
      </trkpt>
      <trkpt lat="56.280674" lon="13.288207">
        <ele>79.1818</ele>
        <time>1970-01-01T01:00:00Z</time>
      </trkpt>
      <trkpt lat="56.280754" lon="13.288249">
        <ele>79.2727</ele>
        <time>1970-01-01T01:00:00Z</time>
      </trkpt>
      <trkpt lat="56.280854" lon="13.288339">
        <ele>79.3636</ele>
        <time>1970-01-01T01:00:00Z</time>
      </trkpt>
      <trkpt lat="56.280912" lon="13.288446">
        <ele>79.4545</ele>
        <time>1970-01-01T01:00:00Z</time>
      </trkpt>
      <trkpt lat="56.280922" lon="13.288635">
        <ele>79.2727</ele>
        <time>1970-01-01T01:00:00Z</time>
      </trkpt>
      <trkpt lat="56.280912" lon="13.288801">
        <ele>78.9091</ele>
        <time>1970-01-01T01:00:00Z</time>
      </trkpt>
      <trkpt lat="56.280907" lon="13.288971">
        <ele>78.5455</ele>
        <time>1970-01-01T01:00:00Z</time>
      </trkpt>
      <trkpt lat="56.280948" lon="13.289127">
        <ele>78.1818</ele>
        <time>1970-01-01T01:00:00Z</time>
      </trkpt>
      <trkpt lat="56.281047" lon="13.28924">
        <ele>77.7273</ele>
        <time>1970-01-01T01:00:00Z</time>
      </trkpt>
      <trkpt lat="56.281157" lon="13.289345">
        <ele>77.2727</ele>
        <time>1970-01-01T01:00:00Z</time>
      </trkpt>
      <trkpt lat="56.281288" lon="13.289416">
        <ele>76.8182</ele>
        <time>1970-01-01T01:00:00Z</time>
      </trkpt>
      <trkpt lat="56.281389" lon="13.2895">
        <ele>76.3636</ele>
        <time>1970-01-01T01:00:00Z</time>
      </trkpt>
      <trkpt lat="56.281471" lon="13.289597">
        <ele>76.0909</ele>
        <time>1970-01-01T01:00:00Z</time>
      </trkpt>
      <trkpt lat="56.28155" lon="13.28973">
        <ele>75.8182</ele>
        <time>1970-01-01T01:00:00Z</time>
      </trkpt>
      <trkpt lat="56.281609" lon="13.289838">
        <ele>75.5455</ele>
        <time>1970-01-01T01:00:00Z</time>
      </trkpt>
      <trkpt lat="56.281706" lon="13.289936">
        <ele>75.2727</ele>
        <time>1970-01-01T01:00:00Z</time>
      </trkpt>
      <trkpt lat="56.281788" lon="13.290047">
        <ele>75.1818</ele>
        <time>1970-01-01T01:00:00Z</time>
      </trkpt>
      <trkpt lat="56.281873" lon="13.290145">
        <ele>75.2727</ele>
        <time>1970-01-01T01:00:00Z</time>
      </trkpt>
      <trkpt lat="56.281898" lon="13.290302">
        <ele>75.3636</ele>
        <time>1970-01-01T01:00:00Z</time>
      </trkpt>
      <trkpt lat="56.281947" lon="13.290456">
        <ele>75.6364</ele>
        <time>1970-01-01T01:00:00Z</time>
      </trkpt>
      <trkpt lat="56.282014" lon="13.290636">
        <ele>75.9091</ele>
        <time>1970-01-01T01:00:00Z</time>
      </trkpt>
      <trkpt lat="56.282075" lon="13.290796">
        <ele>76.1818</ele>
        <time>1970-01-01T01:00:00Z</time>
      </trkpt>
      <trkpt lat="56.282102" lon="13.290975">
        <ele>76.4545</ele>
        <time>1970-01-01T01:00:00Z</time>
      </trkpt>
      <trkpt lat="56.282145" lon="13.291143">
        <ele>76.7273</ele>
        <time>1970-01-01T01:00:00Z</time>
      </trkpt>
      <trkpt lat="56.282182" lon="13.291281">
        <ele>77</ele>
        <time>1970-01-01T01:00:00Z</time>
      </trkpt>
      <trkpt lat="56.282186" lon="13.291445">
        <ele>77.2727</ele>
        <time>1970-01-01T01:00:00Z</time>
      </trkpt>
      <trkpt lat="56.282217" lon="13.291588">
        <ele>77.5455</ele>
        <time>1970-01-01T01:00:00Z</time>
      </trkpt>
      <trkpt lat="56.282292" lon="13.291742">
        <ele>77.8182</ele>
        <time>1970-01-01T01:00:00Z</time>
      </trkpt>
      <trkpt lat="56.282347" lon="13.291854">
        <ele>77.9091</ele>
        <time>1970-01-01T01:00:00Z</time>
      </trkpt>
      <trkpt lat="56.2824" lon="13.292015">
        <ele>78</ele>
        <time>1970-01-01T01:00:00Z</time>
      </trkpt>
      <trkpt lat="56.282456" lon="13.292154">
        <ele>78</ele>
        <time>1970-01-01T01:00:00Z</time>
      </trkpt>
      <trkpt lat="56.282506" lon="13.29232">
        <ele>78</ele>
        <time>1970-01-01T01:00:00Z</time>
      </trkpt>
      <trkpt lat="56.282551" lon="13.292477">
        <ele>78</ele>
        <time>1970-01-01T01:00:00Z</time>
      </trkpt>
      <trkpt lat="56.282593" lon="13.292658">
        <ele>78</ele>
        <time>1970-01-01T01:00:00Z</time>
      </trkpt>
      <trkpt lat="56.282633" lon="13.292826">
        <ele>78</ele>
        <time>1970-01-01T01:00:00Z</time>
      </trkpt>
      <trkpt lat="56.28266" lon="13.292985">
        <ele>78</ele>
        <time>1970-01-01T01:00:00Z</time>
      </trkpt>
      <trkpt lat="56.282662" lon="13.293134">
        <ele>78</ele>
        <time>1970-01-01T01:00:00Z</time>
      </trkpt>
      <trkpt lat="56.282669" lon="13.293301">
        <ele>78</ele>
        <time>1970-01-01T01:00:00Z</time>
      </trkpt>
      <trkpt lat="56.282657" lon="13.293455">
        <ele>78</ele>
        <time>1970-01-01T01:00:00Z</time>
      </trkpt>
      <trkpt lat="56.282659" lon="13.293606">
        <ele>78</ele>
        <time>1970-01-01T01:00:00Z</time>
      </trkpt>
      <trkpt lat="56.282697" lon="13.293745">
        <ele>78</ele>
        <time>1970-01-01T01:00:00Z</time>
      </trkpt>
      <trkpt lat="56.282726" lon="13.293904">
        <ele>78</ele>
        <time>1970-01-01T01:00:00Z</time>
      </trkpt>
      <trkpt lat="56.282662" lon="13.294049">
        <ele>78</ele>
        <time>1970-01-01T01:00:00Z</time>
      </trkpt>
      <trkpt lat="56.28257" lon="13.294138">
        <ele>78.0909</ele>
        <time>1970-01-01T01:00:00Z</time>
      </trkpt>
      <trkpt lat="56.282492" lon="13.29421">
        <ele>78.1818</ele>
        <time>1970-01-01T01:00:00Z</time>
      </trkpt>
      <trkpt lat="56.282442" lon="13.294331">
        <ele>78.2727</ele>
        <time>1970-01-01T01:00:00Z</time>
      </trkpt>
      <trkpt lat="56.282425" lon="13.294508">
        <ele>78.3636</ele>
        <time>1970-01-01T01:00:00Z</time>
      </trkpt>
      <trkpt lat="56.28243" lon="13.294672">
        <ele>78.5455</ele>
        <time>1970-01-01T01:00:00Z</time>
      </trkpt>
      <trkpt lat="56.282427" lon="13.294836">
        <ele>78.7273</ele>
        <time>1970-01-01T01:00:00Z</time>
      </trkpt>
      <trkpt lat="56.282444" lon="13.29503">
        <ele>78.9091</ele>
        <time>1970-01-01T01:00:00Z</time>
      </trkpt>
      <trkpt lat="56.282462" lon="13.295214">
        <ele>79.0909</ele>
        <time>1970-01-01T01:00:00Z</time>
      </trkpt>
      <trkpt lat="56.282484" lon="13.295389">
        <ele>79.2727</ele>
        <time>1970-01-01T01:00:00Z</time>
      </trkpt>
      <trkpt lat="56.282521" lon="13.295558">
        <ele>79.4545</ele>
        <time>1970-01-01T01:00:00Z</time>
      </trkpt>
      <trkpt lat="56.28255" lon="13.295703">
        <ele>79.8182</ele>
        <time>1970-01-01T01:00:00Z</time>
      </trkpt>
      <trkpt lat="56.282627" lon="13.295768">
        <ele>80.0909</ele>
        <time>1970-01-01T01:00:00Z</time>
      </trkpt>
      <trkpt lat="56.282648" lon="13.29592">
        <ele>80.3636</ele>
        <time>1970-01-01T01:00:00Z</time>
      </trkpt>
      <trkpt lat="56.28264" lon="13.296086">
        <ele>80.6364</ele>
        <time>1970-01-01T01:00:00Z</time>
      </trkpt>
      <trkpt lat="56.282627" lon="13.296273">
        <ele>80.9091</ele>
        <time>1970-01-01T01:00:00Z</time>
      </trkpt>
      <trkpt lat="56.282634" lon="13.296491">
        <ele>81.0909</ele>
        <time>1970-01-01T01:00:00Z</time>
      </trkpt>
      <trkpt lat="56.28266" lon="13.296685">
        <ele>81.2727</ele>
        <time>1970-01-01T01:00:00Z</time>
      </trkpt>
      <trkpt lat="56.282711" lon="13.296814">
        <ele>81.4545</ele>
        <time>1970-01-01T01:00:00Z</time>
      </trkpt>
      <trkpt lat="56.282774" lon="13.296941">
        <ele>81.6364</ele>
        <time>1970-01-01T01:00:00Z</time>
      </trkpt>
      <trkpt lat="56.282838" lon="13.297047">
        <ele>81.8182</ele>
        <time>1970-01-01T01:00:00Z</time>
      </trkpt>
      <trkpt lat="56.282843" lon="13.297237">
        <ele>82.0909</ele>
        <time>1970-01-01T01:00:00Z</time>
      </trkpt>
      <trkpt lat="56.282841" lon="13.297417">
        <ele>82.1818</ele>
        <time>1970-01-01T01:00:00Z</time>
      </trkpt>
      <trkpt lat="56.282843" lon="13.297604">
        <ele>82.2727</ele>
        <time>1970-01-01T01:00:00Z</time>
      </trkpt>
      <trkpt lat="56.282832" lon="13.297784">
        <ele>82.3636</ele>
        <time>1970-01-01T01:00:00Z</time>
      </trkpt>
      <trkpt lat="56.28283" lon="13.297965">
        <ele>82.3636</ele>
        <time>1970-01-01T01:00:00Z</time>
      </trkpt>
      <trkpt lat="56.282823" lon="13.298162">
        <ele>82.3636</ele>
        <time>1970-01-01T01:00:00Z</time>
      </trkpt>
      <trkpt lat="56.282813" lon="13.298336">
        <ele>82.3636</ele>
        <time>1970-01-01T01:00:00Z</time>
      </trkpt>
      <trkpt lat="56.28279" lon="13.298504">
        <ele>82.3636</ele>
        <time>1970-01-01T01:00:00Z</time>
      </trkpt>
      <trkpt lat="56.282778" lon="13.298687">
        <ele>82.3636</ele>
        <time>1970-01-01T01:00:00Z</time>
      </trkpt>
      <trkpt lat="56.282756" lon="13.298852">
        <ele>82.2727</ele>
        <time>1970-01-01T01:00:00Z</time>
      </trkpt>
      <trkpt lat="56.282732" lon="13.299016">
        <ele>82.1818</ele>
        <time>1970-01-01T01:00:00Z</time>
      </trkpt>
      <trkpt lat="56.282701" lon="13.29917">
        <ele>82</ele>
        <time>1970-01-01T01:00:00Z</time>
      </trkpt>
      <trkpt lat="56.282689" lon="13.299333">
        <ele>81.8182</ele>
        <time>1970-01-01T01:00:00Z</time>
      </trkpt>
      <trkpt lat="56.282658" lon="13.299506">
        <ele>81.6364</ele>
        <time>1970-01-01T01:00:00Z</time>
      </trkpt>
      <trkpt lat="56.282638" lon="13.299686">
        <ele>81.4545</ele>
        <time>1970-01-01T01:00:00Z</time>
      </trkpt>
      <trkpt lat="56.282618" lon="13.299865">
        <ele>81.3636</ele>
        <time>1970-01-01T01:00:00Z</time>
      </trkpt>
      <trkpt lat="56.282602" lon="13.300033">
        <ele>81.2727</ele>
        <time>1970-01-01T01:00:00Z</time>
      </trkpt>
      <trkpt lat="56.282571" lon="13.300184">
        <ele>81.1818</ele>
        <time>1970-01-01T01:00:00Z</time>
      </trkpt>
      <trkpt lat="56.282534" lon="13.300348">
        <ele>81.0909</ele>
        <time>1970-01-01T01:00:00Z</time>
      </trkpt>
      <trkpt lat="56.282497" lon="13.300493">
        <ele>81</ele>
        <time>1970-01-01T01:00:00Z</time>
      </trkpt>
      <trkpt lat="56.282442" lon="13.300646">
        <ele>81</ele>
        <time>1970-01-01T01:00:00Z</time>
      </trkpt>
      <trkpt lat="56.282383" lon="13.300768">
        <ele>81.0909</ele>
        <time>1970-01-01T01:00:00Z</time>
      </trkpt>
      <trkpt lat="56.282325" lon="13.300872">
        <ele>81.4545</ele>
        <time>1970-01-01T01:00:00Z</time>
      </trkpt>
      <trkpt lat="56.282251" lon="13.300981">
        <ele>81.8182</ele>
        <time>1970-01-01T01:00:00Z</time>
      </trkpt>
      <trkpt lat="56.282183" lon="13.301078">
        <ele>82.1818</ele>
        <time>1970-01-01T01:00:00Z</time>
      </trkpt>
      <trkpt lat="56.282141" lon="13.30122">
        <ele>82.5455</ele>
        <time>1970-01-01T01:00:00Z</time>
      </trkpt>
      <trkpt lat="56.282101" lon="13.301397">
        <ele>82.8182</ele>
        <time>1970-01-01T01:00:00Z</time>
      </trkpt>
      <trkpt lat="56.282073" lon="13.30158">
        <ele>83.0909</ele>
        <time>1970-01-01T01:00:00Z</time>
      </trkpt>
      <trkpt lat="56.282017" lon="13.301731">
        <ele>83.3636</ele>
        <time>1970-01-01T01:00:00Z</time>
      </trkpt>
      <trkpt lat="56.281952" lon="13.301909">
        <ele>83.6364</ele>
        <time>1970-01-01T01:00:00Z</time>
      </trkpt>
      <trkpt lat="56.28187" lon="13.302067">
        <ele>83.9091</ele>
        <time>1970-01-01T01:00:00Z</time>
      </trkpt>
      <trkpt lat="56.281815" lon="13.302178">
        <ele>84.1818</ele>
        <time>1970-01-01T01:00:00Z</time>
      </trkpt>
      <trkpt lat="56.281762" lon="13.302294">
        <ele>84.3636</ele>
        <time>1970-01-01T01:00:00Z</time>
      </trkpt>
      <trkpt lat="56.281696" lon="13.302441">
        <ele>84.1818</ele>
        <time>1970-01-01T01:00:00Z</time>
      </trkpt>
      <trkpt lat="56.281614" lon="13.302469">
        <ele>84.0909</ele>
        <time>1970-01-01T01:00:00Z</time>
      </trkpt>
      <trkpt lat="56.28152" lon="13.302385">
        <ele>84</ele>
        <time>1970-01-01T01:00:00Z</time>
      </trkpt>
      <trkpt lat="56.281434" lon="13.302299">
        <ele>83.9091</ele>
        <time>1970-01-01T01:00:00Z</time>
      </trkpt>
      <trkpt lat="56.281335" lon="13.302209">
        <ele>83.9091</ele>
        <time>1970-01-01T01:00:00Z</time>
      </trkpt>
      <trkpt lat="56.281235" lon="13.302125">
        <ele>83.9091</ele>
        <time>1970-01-01T01:00:00Z</time>
      </trkpt>
      <trkpt lat="56.281156" lon="13.302014">
        <ele>83.9091</ele>
        <time>1970-01-01T01:00:00Z</time>
      </trkpt>
      <trkpt lat="56.28109" lon="13.301888">
        <ele>83.9091</ele>
        <time>1970-01-01T01:00:00Z</time>
      </trkpt>
      <trkpt lat="56.281035" lon="13.301755">
        <ele>83.9091</ele>
        <time>1970-01-01T01:00:00Z</time>
      </trkpt>
      <trkpt lat="56.280992" lon="13.301621">
        <ele>83.9091</ele>
        <time>1970-01-01T01:00:00Z</time>
      </trkpt>
      <trkpt lat="56.280901" lon="13.301501">
        <ele>83.9091</ele>
        <time>1970-01-01T01:00:00Z</time>
      </trkpt>
      <trkpt lat="56.280811" lon="13.301426">
        <ele>83.7273</ele>
        <time>1970-01-01T01:00:00Z</time>
      </trkpt>
      <trkpt lat="56.280732" lon="13.301377">
        <ele>83.4545</ele>
        <time>1970-01-01T01:00:00Z</time>
      </trkpt>
      <trkpt lat="56.280652" lon="13.301326">
        <ele>83.1818</ele>
        <time>1970-01-01T01:00:00Z</time>
      </trkpt>
      <trkpt lat="56.280572" lon="13.301301">
        <ele>82.9091</ele>
        <time>1970-01-01T01:00:00Z</time>
      </trkpt>
      <trkpt lat="56.280485" lon="13.301288">
        <ele>82.6364</ele>
        <time>1970-01-01T01:00:00Z</time>
      </trkpt>
      <trkpt lat="56.280384" lon="13.301247">
        <ele>82.3636</ele>
        <time>1970-01-01T01:00:00Z</time>
      </trkpt>
      <trkpt lat="56.280291" lon="13.301187">
        <ele>82.0909</ele>
        <time>1970-01-01T01:00:00Z</time>
      </trkpt>
      <trkpt lat="56.280228" lon="13.301084">
        <ele>82.1818</ele>
        <time>1970-01-01T01:00:00Z</time>
      </trkpt>
      <trkpt lat="56.28019" lon="13.300938">
        <ele>82.2727</ele>
        <time>1970-01-01T01:00:00Z</time>
      </trkpt>
      <trkpt lat="56.280149" lon="13.300796">
        <ele>82.3636</ele>
        <time>1970-01-01T01:00:00Z</time>
      </trkpt>
      <trkpt lat="56.280104" lon="13.300673">
        <ele>82.4545</ele>
        <time>1970-01-01T01:00:00Z</time>
      </trkpt>
      <trkpt lat="56.280066" lon="13.300526">
        <ele>82.8182</ele>
        <time>1970-01-01T01:00:00Z</time>
      </trkpt>
      <trkpt lat="56.279998" lon="13.300433">
        <ele>82.8182</ele>
        <time>1970-01-01T01:00:00Z</time>
      </trkpt>
      <trkpt lat="56.279917" lon="13.300383">
        <ele>82.8182</ele>
        <time>1970-01-01T01:00:00Z</time>
      </trkpt>
      <trkpt lat="56.279828" lon="13.300318">
        <ele>82.8182</ele>
        <time>1970-01-01T01:00:00Z</time>
      </trkpt>
      <trkpt lat="56.279735" lon="13.300208">
        <ele>82.8182</ele>
        <time>1970-01-01T01:00:00Z</time>
      </trkpt>
      <trkpt lat="56.27964" lon="13.300182">
        <ele>82.8182</ele>
        <time>1970-01-01T01:00:00Z</time>
      </trkpt>
      <trkpt lat="56.279555" lon="13.300198">
        <ele>82.8182</ele>
        <time>1970-01-01T01:00:00Z</time>
      </trkpt>
      <trkpt lat="56.279453" lon="13.300224">
        <ele>82.4545</ele>
        <time>1970-01-01T01:00:00Z</time>
      </trkpt>
      <trkpt lat="56.27936" lon="13.300212">
        <ele>82.0909</ele>
        <time>1970-01-01T01:00:00Z</time>
      </trkpt>
      <trkpt lat="56.279281" lon="13.30017">
        <ele>81.7273</ele>
        <time>1970-01-01T01:00:00Z</time>
      </trkpt>
      <trkpt lat="56.279194" lon="13.300112">
        <ele>81.2727</ele>
        <time>1970-01-01T01:00:00Z</time>
      </trkpt>
      <trkpt lat="56.279115" lon="13.300048">
        <ele>80.8182</ele>
        <time>1970-01-01T01:00:00Z</time>
      </trkpt>
      <trkpt lat="56.279023" lon="13.299996">
        <ele>80.7273</ele>
        <time>1970-01-01T01:00:00Z</time>
      </trkpt>
      <trkpt lat="56.27894" lon="13.299967">
        <ele>80.6364</ele>
        <time>1970-01-01T01:00:00Z</time>
      </trkpt>
      <trkpt lat="56.278845" lon="13.299933">
        <ele>80.5455</ele>
        <time>1970-01-01T01:00:00Z</time>
      </trkpt>
      <trkpt lat="56.278749" lon="13.299916">
        <ele>80.4545</ele>
        <time>1970-01-01T01:00:00Z</time>
      </trkpt>
      <trkpt lat="56.278641" lon="13.29991">
        <ele>80.3636</ele>
        <time>1970-01-01T01:00:00Z</time>
      </trkpt>
      <trkpt lat="56.278558" lon="13.299915">
        <ele>80.2727</ele>
        <time>1970-01-01T01:00:00Z</time>
      </trkpt>
      <trkpt lat="56.278473" lon="13.299968">
        <ele>80.1818</ele>
        <time>1970-01-01T01:00:00Z</time>
      </trkpt>
      <trkpt lat="56.278381" lon="13.300002">
        <ele>80.0909</ele>
        <time>1970-01-01T01:00:00Z</time>
      </trkpt>
      <trkpt lat="56.278293" lon="13.30002">
        <ele>80</ele>
        <time>1970-01-01T01:00:00Z</time>
      </trkpt>
      <trkpt lat="56.278214" lon="13.299962">
        <ele>80.2727</ele>
        <time>1970-01-01T01:00:00Z</time>
      </trkpt>
      <trkpt lat="56.278178" lon="13.299804">
        <ele>80.5455</ele>
        <time>1970-01-01T01:00:00Z</time>
      </trkpt>
      <trkpt lat="56.278134" lon="13.299656">
        <ele>80.8182</ele>
        <time>1970-01-01T01:00:00Z</time>
      </trkpt>
      <trkpt lat="56.278089" lon="13.299514">
        <ele>81.0909</ele>
        <time>1970-01-01T01:00:00Z</time>
      </trkpt>
      <trkpt lat="56.278002" lon="13.299565">
        <ele>81.3636</ele>
        <time>1970-01-01T01:00:00Z</time>
      </trkpt>
      <trkpt lat="56.27791" lon="13.29965">
        <ele>81.6364</ele>
        <time>1970-01-01T01:00:00Z</time>
      </trkpt>
      <trkpt lat="56.277831" lon="13.299704">
        <ele>81.9091</ele>
        <time>1970-01-01T01:00:00Z</time>
      </trkpt>
      <trkpt lat="56.277746" lon="13.299755">
        <ele>82.1818</ele>
        <time>1970-01-01T01:00:00Z</time>
      </trkpt>
      <trkpt lat="56.27766" lon="13.299795">
        <ele>82.4545</ele>
        <time>1970-01-01T01:00:00Z</time>
      </trkpt>
      <trkpt lat="56.277571" lon="13.299814">
        <ele>82.7273</ele>
        <time>1970-01-01T01:00:00Z</time>
      </trkpt>
      <trkpt lat="56.27747" lon="13.299829">
        <ele>83</ele>
        <time>1970-01-01T01:00:00Z</time>
      </trkpt>
      <trkpt lat="56.277374" lon="13.299837">
        <ele>83</ele>
        <time>1970-01-01T01:00:00Z</time>
      </trkpt>
      <trkpt lat="56.277284" lon="13.299855">
        <ele>83</ele>
        <time>1970-01-01T01:00:00Z</time>
      </trkpt>
      <trkpt lat="56.277188" lon="13.299871">
        <ele>83</ele>
        <time>1970-01-01T01:00:00Z</time>
      </trkpt>
      <trkpt lat="56.277092" lon="13.299905">
        <ele>83</ele>
        <time>1970-01-01T01:00:00Z</time>
      </trkpt>
      <trkpt lat="56.277001" lon="13.299965">
        <ele>83</ele>
        <time>1970-01-01T01:00:00Z</time>
      </trkpt>
      <trkpt lat="56.276902" lon="13.300031">
        <ele>83</ele>
        <time>1970-01-01T01:00:00Z</time>
      </trkpt>
      <trkpt lat="56.276816" lon="13.300129">
        <ele>83</ele>
        <time>1970-01-01T01:00:00Z</time>
      </trkpt>
      <trkpt lat="56.276736" lon="13.300177">
        <ele>83</ele>
        <time>1970-01-01T01:00:00Z</time>
      </trkpt>
      <trkpt lat="56.276637" lon="13.300242">
        <ele>83</ele>
        <time>1970-01-01T01:00:00Z</time>
      </trkpt>
      <trkpt lat="56.27654" lon="13.300271">
        <ele>83</ele>
        <time>1970-01-01T01:00:00Z</time>
      </trkpt>
      <trkpt lat="56.276435" lon="13.300266">
        <ele>83</ele>
        <time>1970-01-01T01:00:00Z</time>
      </trkpt>
      <trkpt lat="56.27633" lon="13.300268">
        <ele>83</ele>
        <time>1970-01-01T01:00:00Z</time>
      </trkpt>
      <trkpt lat="56.27624" lon="13.3003">
        <ele>83</ele>
        <time>1970-01-01T01:00:00Z</time>
      </trkpt>
      <trkpt lat="56.276151" lon="13.300312">
        <ele>83</ele>
        <time>1970-01-01T01:00:00Z</time>
      </trkpt>
      <trkpt lat="56.27607" lon="13.300313">
        <ele>83</ele>
        <time>1970-01-01T01:00:00Z</time>
      </trkpt>
      <trkpt lat="56.275983" lon="13.300256">
        <ele>83</ele>
        <time>1970-01-01T01:00:00Z</time>
      </trkpt>
      <trkpt lat="56.275905" lon="13.300163">
        <ele>83.0909</ele>
        <time>1970-01-01T01:00:00Z</time>
      </trkpt>
      <trkpt lat="56.275847" lon="13.300051">
        <ele>83.1818</ele>
        <time>1970-01-01T01:00:00Z</time>
      </trkpt>
      <trkpt lat="56.275787" lon="13.299943">
        <ele>83.2727</ele>
        <time>1970-01-01T01:00:00Z</time>
      </trkpt>
      <trkpt lat="56.275728" lon="13.29982">
        <ele>83.3636</ele>
        <time>1970-01-01T01:00:00Z</time>
      </trkpt>
      <trkpt lat="56.27568" lon="13.299658">
        <ele>83.4545</ele>
        <time>1970-01-01T01:00:00Z</time>
      </trkpt>
      <trkpt lat="56.275624" lon="13.299519">
        <ele>83.6364</ele>
        <time>1970-01-01T01:00:00Z</time>
      </trkpt>
      <trkpt lat="56.275584" lon="13.299388">
        <ele>83.8182</ele>
        <time>1970-01-01T01:00:00Z</time>
      </trkpt>
      <trkpt lat="56.275543" lon="13.299222">
        <ele>84</ele>
        <time>1970-01-01T01:00:00Z</time>
      </trkpt>
      <trkpt lat="56.275535" lon="13.299045">
        <ele>84.1818</ele>
        <time>1970-01-01T01:00:00Z</time>
      </trkpt>
      <trkpt lat="56.275545" lon="13.29889">
        <ele>84.3636</ele>
        <time>1970-01-01T01:00:00Z</time>
      </trkpt>
      <trkpt lat="56.275536" lon="13.298744">
        <ele>84.3636</ele>
        <time>1970-01-01T01:00:00Z</time>
      </trkpt>
      <trkpt lat="56.275499" lon="13.298592">
        <ele>84.2727</ele>
        <time>1970-01-01T01:00:00Z</time>
      </trkpt>
      <trkpt lat="56.27551" lon="13.298413">
        <ele>84.1818</ele>
        <time>1970-01-01T01:00:00Z</time>
      </trkpt>
      <trkpt lat="56.275487" lon="13.298238">
        <ele>84.0909</ele>
        <time>1970-01-01T01:00:00Z</time>
      </trkpt>
      <trkpt lat="56.275515" lon="13.298085">
        <ele>84</ele>
        <time>1970-01-01T01:00:00Z</time>
      </trkpt>
      <trkpt lat="56.275553" lon="13.297937">
        <ele>83.7273</ele>
        <time>1970-01-01T01:00:00Z</time>
      </trkpt>
      <trkpt lat="56.275585" lon="13.297769">
        <ele>83.3636</ele>
        <time>1970-01-01T01:00:00Z</time>
      </trkpt>
      <trkpt lat="56.275598" lon="13.297595">
        <ele>83</ele>
        <time>1970-01-01T01:00:00Z</time>
      </trkpt>
      <trkpt lat="56.275585" lon="13.297424">
        <ele>82.6364</ele>
        <time>1970-01-01T01:00:00Z</time>
      </trkpt>
      <trkpt lat="56.275577" lon="13.297235">
        <ele>82.2727</ele>
        <time>1970-01-01T01:00:00Z</time>
      </trkpt>
      <trkpt lat="56.275576" lon="13.297056">
        <ele>81.9091</ele>
        <time>1970-01-01T01:00:00Z</time>
      </trkpt>
      <trkpt lat="56.275593" lon="13.296873">
        <ele>81.7273</ele>
        <time>1970-01-01T01:00:00Z</time>
      </trkpt>
      <trkpt lat="56.275627" lon="13.296686">
        <ele>81.5455</ele>
        <time>1970-01-01T01:00:00Z</time>
      </trkpt>
      <trkpt lat="56.275635" lon="13.296527">
        <ele>81.3636</ele>
        <time>1970-01-01T01:00:00Z</time>
      </trkpt>
      <trkpt lat="56.275637" lon="13.296366">
        <ele>81.1818</ele>
        <time>1970-01-01T01:00:00Z</time>
      </trkpt>
      <trkpt lat="56.275629" lon="13.296199">
        <ele>81</ele>
        <time>1970-01-01T01:00:00Z</time>
      </trkpt>
      <trkpt lat="56.275633" lon="13.296028">
        <ele>81</ele>
        <time>1970-01-01T01:00:00Z</time>
      </trkpt>
      <trkpt lat="56.275688" lon="13.29587">
        <ele>81</ele>
        <time>1970-01-01T01:00:00Z</time>
      </trkpt>
      <trkpt lat="56.275745" lon="13.295713">
        <ele>81</ele>
        <time>1970-01-01T01:00:00Z</time>
      </trkpt>
      <trkpt lat="56.275751" lon="13.295557">
        <ele>80.9091</ele>
        <time>1970-01-01T01:00:00Z</time>
      </trkpt>
      <trkpt lat="56.275795" lon="13.295424">
        <ele>80.8182</ele>
        <time>1970-01-01T01:00:00Z</time>
      </trkpt>
      <trkpt lat="56.275822" lon="13.295233">
        <ele>80.7273</ele>
        <time>1970-01-01T01:00:00Z</time>
      </trkpt>
      <trkpt lat="56.275831" lon="13.295037">
        <ele>80.6364</ele>
        <time>1970-01-01T01:00:00Z</time>
      </trkpt>
      <trkpt lat="56.275854" lon="13.294853">
        <ele>80.5455</ele>
        <time>1970-01-01T01:00:00Z</time>
      </trkpt>
      <trkpt lat="56.275891" lon="13.294679">
        <ele>80.4545</ele>
        <time>1970-01-01T01:00:00Z</time>
      </trkpt>
      <trkpt lat="56.275928" lon="13.294523">
        <ele>80.2727</ele>
        <time>1970-01-01T01:00:00Z</time>
      </trkpt>
      <trkpt lat="56.275987" lon="13.294399">
        <ele>80.0909</ele>
        <time>1970-01-01T01:00:00Z</time>
      </trkpt>
      <trkpt lat="56.27603" lon="13.294248">
        <ele>79.9091</ele>
        <time>1970-01-01T01:00:00Z</time>
      </trkpt>
      <trkpt lat="56.276065" lon="13.294089">
        <ele>79.7273</ele>
        <time>1970-01-01T01:00:00Z</time>
      </trkpt>
      <trkpt lat="56.276108" lon="13.293941">
        <ele>79.5455</ele>
        <time>1970-01-01T01:00:00Z</time>
      </trkpt>
      <trkpt lat="56.276155" lon="13.293807">
        <ele>79.4545</ele>
        <time>1970-01-01T01:00:00Z</time>
      </trkpt>
      <trkpt lat="56.276162" lon="13.29364">
        <ele>79.3636</ele>
        <time>1970-01-01T01:00:00Z</time>
      </trkpt>
      <trkpt lat="56.276136" lon="13.293456">
        <ele>79.2727</ele>
        <time>1970-01-01T01:00:00Z</time>
      </trkpt>
      <trkpt lat="56.276077" lon="13.293322">
        <ele>79.0909</ele>
        <time>1970-01-01T01:00:00Z</time>
      </trkpt>
      <trkpt lat="56.276011" lon="13.293237">
        <ele>78.9091</ele>
        <time>1970-01-01T01:00:00Z</time>
      </trkpt>
      <trkpt lat="56.275933" lon="13.293163">
        <ele>78.7273</ele>
        <time>1970-01-01T01:00:00Z</time>
      </trkpt>
      <trkpt lat="56.275851" lon="13.293088">
        <ele>78.6364</ele>
        <time>1970-01-01T01:00:00Z</time>
      </trkpt>
      <trkpt lat="56.275758" lon="13.293005">
        <ele>78.5455</ele>
        <time>1970-01-01T01:00:00Z</time>
      </trkpt>
      <trkpt lat="56.275679" lon="13.292897">
        <ele>78.3636</ele>
        <time>1970-01-01T01:00:00Z</time>
      </trkpt>
      <trkpt lat="56.275671" lon="13.292733">
        <ele>78.1818</ele>
        <time>1970-01-01T01:00:00Z</time>
      </trkpt>
      <trkpt lat="56.275656" lon="13.292573">
        <ele>78</ele>
        <time>1970-01-01T01:00:00Z</time>
      </trkpt>
      <trkpt lat="56.27567" lon="13.292412">
        <ele>77.8182</ele>
        <time>1970-01-01T01:00:00Z</time>
      </trkpt>
      <trkpt lat="56.275708" lon="13.29226">
        <ele>77.6364</ele>
        <time>1970-01-01T01:00:00Z</time>
      </trkpt>
      <trkpt lat="56.275734" lon="13.292076">
        <ele>77.4545</ele>
        <time>1970-01-01T01:00:00Z</time>
      </trkpt>
      <trkpt lat="56.275779" lon="13.291951">
        <ele>77.4545</ele>
        <time>1970-01-01T01:00:00Z</time>
      </trkpt>
      <trkpt lat="56.275821" lon="13.291797">
        <ele>77.4545</ele>
        <time>1970-01-01T01:00:00Z</time>
      </trkpt>
      <trkpt lat="56.275852" lon="13.291661">
        <ele>77.4545</ele>
        <time>1970-01-01T01:00:00Z</time>
      </trkpt>
      <trkpt lat="56.275887" lon="13.291522">
        <ele>77.4545</ele>
        <time>1970-01-01T01:00:00Z</time>
      </trkpt>
      <trkpt lat="56.275949" lon="13.291386">
        <ele>77</ele>
        <time>1970-01-01T01:00:00Z</time>
      </trkpt>
      <trkpt lat="56.276001" lon="13.291274">
        <ele>76.6364</ele>
        <time>1970-01-01T01:00:00Z</time>
      </trkpt>
      <trkpt lat="56.276068" lon="13.291149">
        <ele>76.2727</ele>
        <time>1970-01-01T01:00:00Z</time>
      </trkpt>
      <trkpt lat="56.276133" lon="13.291048">
        <ele>75.9091</ele>
        <time>1970-01-01T01:00:00Z</time>
      </trkpt>
      <trkpt lat="56.276176" lon="13.290906">
        <ele>75.5455</ele>
        <time>1970-01-01T01:00:00Z</time>
      </trkpt>
      <trkpt lat="56.2772" lon="13.287038">
        <ele>75.1818</ele>
        <time>1970-01-01T01:00:00Z</time>
      </trkpt>
      <trkpt lat="56.277303" lon="13.287015">
        <ele>74.8182</ele>
        <time>1970-01-01T01:00:00Z</time>
      </trkpt>
      <trkpt lat="56.277392" lon="13.286946">
        <ele>74.2727</ele>
        <time>1970-01-01T01:00:00Z</time>
      </trkpt>
      <trkpt lat="56.277477" lon="13.286827">
        <ele>73.7273</ele>
        <time>1970-01-01T01:00:00Z</time>
      </trkpt>
      <trkpt lat="56.277539" lon="13.286698">
        <ele>73.1818</ele>
        <time>1970-01-01T01:00:00Z</time>
      </trkpt>
      <trkpt lat="56.27758" lon="13.286557">
        <ele>72.6364</ele>
        <time>1970-01-01T01:00:00Z</time>
      </trkpt>
      <trkpt lat="56.277617" lon="13.28642">
        <ele>72.5455</ele>
        <time>1970-01-01T01:00:00Z</time>
      </trkpt>
      <trkpt lat="56.277675" lon="13.286282">
        <ele>72.4545</ele>
        <time>1970-01-01T01:00:00Z</time>
      </trkpt>
      <trkpt lat="56.277723" lon="13.286132">
        <ele>72.2727</ele>
        <time>1970-01-01T01:00:00Z</time>
      </trkpt>
      <trkpt lat="56.277763" lon="13.285997">
        <ele>72</ele>
        <time>1970-01-01T01:00:00Z</time>
      </trkpt>
      <trkpt lat="56.277837" lon="13.285906">
        <ele>71.7273</ele>
        <time>1970-01-01T01:00:00Z</time>
      </trkpt>
      <trkpt lat="56.27786" lon="13.285756">
        <ele>71.4545</ele>
        <time>1970-01-01T01:00:00Z</time>
      </trkpt>
      <trkpt lat="56.277905" lon="13.285627">
        <ele>71.1818</ele>
        <time>1970-01-01T01:00:00Z</time>
      </trkpt>
      <trkpt lat="56.277964" lon="13.285466">
        <ele>70.9091</ele>
        <time>1970-01-01T01:00:00Z</time>
      </trkpt>
      <trkpt lat="56.278017" lon="13.285335">
        <ele>70.6364</ele>
        <time>1970-01-01T01:00:00Z</time>
      </trkpt>
      <trkpt lat="56.27804" lon="13.285156">
        <ele>70.3636</ele>
        <time>1970-01-01T01:00:00Z</time>
      </trkpt>
      <trkpt lat="56.278052" lon="13.284983">
        <ele>70.0909</ele>
        <time>1970-01-01T01:00:00Z</time>
      </trkpt>
      <trkpt lat="56.278082" lon="13.284838">
        <ele>69.8182</ele>
        <time>1970-01-01T01:00:00Z</time>
      </trkpt>
      <trkpt lat="56.278103" lon="13.284682">
        <ele>69.5455</ele>
        <time>1970-01-01T01:00:00Z</time>
      </trkpt>
      <trkpt lat="56.278122" lon="13.284533">
        <ele>69.3636</ele>
        <time>1970-01-01T01:00:00Z</time>
      </trkpt>
      <trkpt lat="56.278148" lon="13.28439">
        <ele>69.2727</ele>
        <time>1970-01-01T01:00:00Z</time>
      </trkpt>
      <trkpt lat="56.278151" lon="13.284237">
        <ele>69.1818</ele>
        <time>1970-01-01T01:00:00Z</time>
      </trkpt>
      <trkpt lat="56.278166" lon="13.284088">
        <ele>69.0909</ele>
        <time>1970-01-01T01:00:00Z</time>
      </trkpt>
      <trkpt lat="56.27817" lon="13.283928">
        <ele>69</ele>
        <time>1970-01-01T01:00:00Z</time>
      </trkpt>
      <trkpt lat="56.27819" lon="13.283735">
        <ele>69</ele>
        <time>1970-01-01T01:00:00Z</time>
      </trkpt>
      <trkpt lat="56.278202" lon="13.283589">
        <ele>69</ele>
        <time>1970-01-01T01:00:00Z</time>
      </trkpt>
      <trkpt lat="56.278192" lon="13.283429">
        <ele>69.0909</ele>
        <time>1970-01-01T01:00:00Z</time>
      </trkpt>
      <trkpt lat="56.278213" lon="13.283284">
        <ele>69.1818</ele>
        <time>1970-01-01T01:00:00Z</time>
      </trkpt>
      <trkpt lat="56.278273" lon="13.283131">
        <ele>69.2727</ele>
        <time>1970-01-01T01:00:00Z</time>
      </trkpt>
      <trkpt lat="56.278317" lon="13.283008">
        <ele>69.3636</ele>
        <time>1970-01-01T01:00:00Z</time>
      </trkpt>
      <trkpt lat="56.278396" lon="13.28297">
        <ele>69.4545</ele>
        <time>1970-01-01T01:00:00Z</time>
      </trkpt>
      <trkpt lat="56.27847" lon="13.282877">
        <ele>69.5455</ele>
        <time>1970-01-01T01:00:00Z</time>
      </trkpt>
      <trkpt lat="56.278452" lon="13.282717">
        <ele>69.7273</ele>
        <time>1970-01-01T01:00:00Z</time>
      </trkpt>
      <trkpt lat="56.278413" lon="13.282581">
        <ele>69.9091</ele>
        <time>1970-01-01T01:00:00Z</time>
      </trkpt>
      <trkpt lat="56.278363" lon="13.282441">
        <ele>70.0909</ele>
        <time>1970-01-01T01:00:00Z</time>
      </trkpt>
      <trkpt lat="56.278308" lon="13.282267">
        <ele>70.2727</ele>
        <time>1970-01-01T01:00:00Z</time>
      </trkpt>
      <trkpt lat="56.278263" lon="13.282134">
        <ele>70.4545</ele>
        <time>1970-01-01T01:00:00Z</time>
      </trkpt>
      <trkpt lat="56.278227" lon="13.281963">
        <ele>70.7273</ele>
        <time>1970-01-01T01:00:00Z</time>
      </trkpt>
      <trkpt lat="56.278265" lon="13.281793">
        <ele>71</ele>
        <time>1970-01-01T01:00:00Z</time>
      </trkpt>
      <trkpt lat="56.278287" lon="13.281629">
        <ele>71.2727</ele>
        <time>1970-01-01T01:00:00Z</time>
      </trkpt>
      <trkpt lat="56.278312" lon="13.281468">
        <ele>71.5455</ele>
        <time>1970-01-01T01:00:00Z</time>
      </trkpt>
      <trkpt lat="56.27833" lon="13.281303">
        <ele>71.8182</ele>
        <time>1970-01-01T01:00:00Z</time>
      </trkpt>
      <trkpt lat="56.278363" lon="13.281135">
        <ele>72.2727</ele>
        <time>1970-01-01T01:00:00Z</time>
      </trkpt>
      <trkpt lat="56.278425" lon="13.281003">
        <ele>72.6364</ele>
        <time>1970-01-01T01:00:00Z</time>
      </trkpt>
      <trkpt lat="56.278491" lon="13.280874">
        <ele>73</ele>
        <time>1970-01-01T01:00:00Z</time>
      </trkpt>
      <trkpt lat="56.278553" lon="13.280742">
        <ele>73</ele>
        <time>1970-01-01T01:00:00Z</time>
      </trkpt>
      <trkpt lat="56.278609" lon="13.280598">
        <ele>73</ele>
        <time>1970-01-01T01:00:00Z</time>
      </trkpt>
      <trkpt lat="56.278639" lon="13.280423">
        <ele>73</ele>
        <time>1970-01-01T01:00:00Z</time>
      </trkpt>
      <trkpt lat="56.27869" lon="13.280289">
        <ele>72.8182</ele>
        <time>1970-01-01T01:00:00Z</time>
      </trkpt>
      <trkpt lat="56.278775" lon="13.280223">
        <ele>72.6364</ele>
        <time>1970-01-01T01:00:00Z</time>
      </trkpt>
      <trkpt lat="56.27885" lon="13.280145">
        <ele>72.4545</ele>
        <time>1970-01-01T01:00:00Z</time>
      </trkpt>
      <trkpt lat="56.278941" lon="13.280073">
        <ele>72.2727</ele>
        <time>1970-01-01T01:00:00Z</time>
      </trkpt>
      <trkpt lat="56.279038" lon="13.279984">
        <ele>72.0909</ele>
        <time>1970-01-01T01:00:00Z</time>
      </trkpt>
      <trkpt lat="56.279136" lon="13.279914">
        <ele>71.7273</ele>
        <time>1970-01-01T01:00:00Z</time>
      </trkpt>
      <trkpt lat="56.279218" lon="13.279863">
        <ele>71.5455</ele>
        <time>1970-01-01T01:00:00Z</time>
      </trkpt>
      <trkpt lat="56.279305" lon="13.279816">
        <ele>71.3636</ele>
        <time>1970-01-01T01:00:00Z</time>
      </trkpt>
      <trkpt lat="56.279398" lon="13.279754">
        <ele>71.5455</ele>
        <time>1970-01-01T01:00:00Z</time>
      </trkpt>
      <trkpt lat="56.279492" lon="13.279717">
        <ele>71.7273</ele>
        <time>1970-01-01T01:00:00Z</time>
      </trkpt>
      <trkpt lat="56.279583" lon="13.27967">
        <ele>71.9091</ele>
        <time>1970-01-01T01:00:00Z</time>
      </trkpt>
      <trkpt lat="56.279683" lon="13.279584">
        <ele>72.0909</ele>
        <time>1970-01-01T01:00:00Z</time>
      </trkpt>
      <trkpt lat="56.27977" lon="13.279455">
        <ele>72.2727</ele>
        <time>1970-01-01T01:00:00Z</time>
      </trkpt>
      <trkpt lat="56.279842" lon="13.279328">
        <ele>72.7273</ele>
        <time>1970-01-01T01:00:00Z</time>
      </trkpt>
      <trkpt lat="56.279916" lon="13.279197">
        <ele>73.1818</ele>
        <time>1970-01-01T01:00:00Z</time>
      </trkpt>
      <trkpt lat="56.279986" lon="13.279072">
        <ele>73.6364</ele>
        <time>1970-01-01T01:00:00Z</time>
      </trkpt>
      <trkpt lat="56.280062" lon="13.278947">
        <ele>73.8182</ele>
        <time>1970-01-01T01:00:00Z</time>
      </trkpt>
      <trkpt lat="56.280152" lon="13.278835">
        <ele>73.8182</ele>
        <time>1970-01-01T01:00:00Z</time>
      </trkpt>
      <trkpt lat="56.28024" lon="13.278706">
        <ele>73.8182</ele>
        <time>1970-01-01T01:00:00Z</time>
      </trkpt>
      <trkpt lat="56.280324" lon="13.278604">
        <ele>73.8182</ele>
        <time>1970-01-01T01:00:00Z</time>
      </trkpt>
      <trkpt lat="56.280397" lon="13.278519">
        <ele>73.5455</ele>
        <time>1970-01-01T01:00:00Z</time>
      </trkpt>
      <trkpt lat="56.280479" lon="13.278446">
        <ele>73.2727</ele>
        <time>1970-01-01T01:00:00Z</time>
      </trkpt>
      <trkpt lat="56.28057" lon="13.278522">
        <ele>73</ele>
        <time>1970-01-01T01:00:00Z</time>
      </trkpt>
      <trkpt lat="56.280611" lon="13.278671">
        <ele>72.7273</ele>
        <time>1970-01-01T01:00:00Z</time>
      </trkpt>
      <trkpt lat="56.280648" lon="13.278812">
        <ele>72.1818</ele>
        <time>1970-01-01T01:00:00Z</time>
      </trkpt>
      <trkpt lat="56.280657" lon="13.278959">
        <ele>71.3636</ele>
        <time>1970-01-01T01:00:00Z</time>
      </trkpt>
      <trkpt lat="56.280673" lon="13.279111">
        <ele>70.5455</ele>
        <time>1970-01-01T01:00:00Z</time>
      </trkpt>
      <trkpt lat="56.280685" lon="13.279264">
        <ele>70</ele>
        <time>1970-01-01T01:00:00Z</time>
      </trkpt>
      <trkpt lat="56.280706" lon="13.279414">
        <ele>69.4545</ele>
        <time>1970-01-01T01:00:00Z</time>
      </trkpt>
      <trkpt lat="56.280726" lon="13.279567">
        <ele>68.9091</ele>
        <time>1970-01-01T01:00:00Z</time>
      </trkpt>
      <trkpt lat="56.280755" lon="13.279741">
        <ele>68.3636</ele>
        <time>1970-01-01T01:00:00Z</time>
      </trkpt>
      <trkpt lat="56.280781" lon="13.279885">
        <ele>68.1818</ele>
        <time>1970-01-01T01:00:00Z</time>
      </trkpt>
      <trkpt lat="56.280842" lon="13.280019">
        <ele>68</ele>
        <time>1970-01-01T01:00:00Z</time>
      </trkpt>
      <trkpt lat="56.280904" lon="13.280157">
        <ele>67.8182</ele>
        <time>1970-01-01T01:00:00Z</time>
      </trkpt>
      <trkpt lat="56.280937" lon="13.280309">
        <ele>67.6364</ele>
        <time>1970-01-01T01:00:00Z</time>
      </trkpt>
      <trkpt lat="56.280984" lon="13.280446">
        <ele>67.4545</ele>
        <time>1970-01-01T01:00:00Z</time>
      </trkpt>
      <trkpt lat="56.281017" lon="13.280583">
        <ele>67.6364</ele>
        <time>1970-01-01T01:00:00Z</time>
      </trkpt>
      <trkpt lat="56.281036" lon="13.280771">
        <ele>67.8182</ele>
        <time>1970-01-01T01:00:00Z</time>
      </trkpt>
      <trkpt lat="56.281048" lon="13.280921">
        <ele>68</ele>
        <time>1970-01-01T01:00:00Z</time>
      </trkpt>
      <trkpt lat="56.281017" lon="13.281064">
        <ele>68.1818</ele>
        <time>1970-01-01T01:00:00Z</time>
      </trkpt>
      <trkpt lat="56.281002" lon="13.281213">
        <ele>68.3636</ele>
        <time>1970-01-01T01:00:00Z</time>
      </trkpt>
      <trkpt lat="56.281005" lon="13.281394">
        <ele>68.7273</ele>
        <time>1970-01-01T01:00:00Z</time>
      </trkpt>
      <trkpt lat="56.281002" lon="13.281544">
        <ele>69</ele>
        <time>1970-01-01T01:00:00Z</time>
      </trkpt>
      <trkpt lat="56.280985" lon="13.281694">
        <ele>69.2727</ele>
        <time>1970-01-01T01:00:00Z</time>
      </trkpt>
      <trkpt lat="56.280982" lon="13.281868">
        <ele>69.5455</ele>
        <time>1970-01-01T01:00:00Z</time>
      </trkpt>
      <trkpt lat="56.280973" lon="13.282029">
        <ele>69.8182</ele>
        <time>1970-01-01T01:00:00Z</time>
      </trkpt>
      <trkpt lat="56.280954" lon="13.28219">
        <ele>70.3636</ele>
        <time>1970-01-01T01:00:00Z</time>
      </trkpt>
      <trkpt lat="56.280964" lon="13.282351">
        <ele>70.8182</ele>
        <time>1970-01-01T01:00:00Z</time>
      </trkpt>
      <trkpt lat="56.280959" lon="13.282543">
        <ele>71.2727</ele>
        <time>1970-01-01T01:00:00Z</time>
      </trkpt>
      <trkpt lat="56.280967" lon="13.28272">
        <ele>71.7273</ele>
        <time>1970-01-01T01:00:00Z</time>
      </trkpt>
      <trkpt lat="56.280964" lon="13.282875">
        <ele>72.1818</ele>
        <time>1970-01-01T01:00:00Z</time>
      </trkpt>
      <trkpt lat="56.28095" lon="13.283039">
        <ele>72.6364</ele>
        <time>1970-01-01T01:00:00Z</time>
      </trkpt>
      <trkpt lat="56.280915" lon="13.283184">
        <ele>73.1818</ele>
        <time>1970-01-01T01:00:00Z</time>
      </trkpt>
      <trkpt lat="56.2809" lon="13.283377">
        <ele>73.7273</ele>
        <time>1970-01-01T01:00:00Z</time>
      </trkpt>
      <trkpt lat="56.280876" lon="13.283535">
        <ele>74.2727</ele>
        <time>1970-01-01T01:00:00Z</time>
      </trkpt>
      <trkpt lat="56.280852" lon="13.283695">
        <ele>74.8182</ele>
        <time>1970-01-01T01:00:00Z</time>
      </trkpt>
      <trkpt lat="56.280844" lon="13.283857">
        <ele>75.7273</ele>
        <time>1970-01-01T01:00:00Z</time>
      </trkpt>
      <trkpt lat="56.280839" lon="13.284028">
        <ele>76</ele>
        <time>1970-01-01T01:00:00Z</time>
      </trkpt>
      <trkpt lat="56.280839" lon="13.2842">
        <ele>76.2727</ele>
        <time>1970-01-01T01:00:00Z</time>
      </trkpt>
      <trkpt lat="56.280821" lon="13.284386">
        <ele>76.5455</ele>
        <time>1970-01-01T01:00:00Z</time>
      </trkpt>
      <trkpt lat="56.280818" lon="13.284559">
        <ele>76.8182</ele>
        <time>1970-01-01T01:00:00Z</time>
      </trkpt>
      <trkpt lat="56.28082" lon="13.284725">
        <ele>77.0909</ele>
        <time>1970-01-01T01:00:00Z</time>
      </trkpt>
      <trkpt lat="56.280777" lon="13.284581">
        <ele>77.0909</ele>
        <time>1970-01-01T01:00:00Z</time>
      </trkpt>
      <trkpt lat="56.280759" lon="13.284425">
        <ele>76.8182</ele>
        <time>1970-01-01T01:00:00Z</time>
      </trkpt>
      <trkpt lat="56.280749" lon="13.284267">
        <ele>76.5455</ele>
        <time>1970-01-01T01:00:00Z</time>
      </trkpt>
      <trkpt lat="56.280748" lon="13.284106">
        <ele>76.2727</ele>
        <time>1970-01-01T01:00:00Z</time>
      </trkpt>
      <trkpt lat="56.280752" lon="13.28395">
        <ele>76</ele>
        <time>1970-01-01T01:00:00Z</time>
      </trkpt>
      <trkpt lat="56.280755" lon="13.28379">
        <ele>75.3636</ele>
        <time>1970-01-01T01:00:00Z</time>
      </trkpt>
      <trkpt lat="56.280769" lon="13.28363">
        <ele>74.8182</ele>
        <time>1970-01-01T01:00:00Z</time>
      </trkpt>
      <trkpt lat="56.28078" lon="13.283484">
        <ele>74.2727</ele>
        <time>1970-01-01T01:00:00Z</time>
      </trkpt>
      <trkpt lat="56.280777" lon="13.283323">
        <ele>73.7273</ele>
        <time>1970-01-01T01:00:00Z</time>
      </trkpt>
      <trkpt lat="56.280778" lon="13.283176">
        <ele>73.1818</ele>
        <time>1970-01-01T01:00:00Z</time>
      </trkpt>
      <trkpt lat="56.280793" lon="13.283012">
        <ele>72.9091</ele>
        <time>1970-01-01T01:00:00Z</time>
      </trkpt>
      <trkpt lat="56.280853" lon="13.282888">
        <ele>72.9091</ele>
        <time>1970-01-01T01:00:00Z</time>
      </trkpt>
      <trkpt lat="56.280903" lon="13.282766">
        <ele>72.9091</ele>
        <time>1970-01-01T01:00:00Z</time>
      </trkpt>
      <trkpt lat="56.280927" lon="13.282618">
        <ele>72.9091</ele>
        <time>1970-01-01T01:00:00Z</time>
      </trkpt>
      <trkpt lat="56.280968" lon="13.282782">
        <ele>72.9091</ele>
        <time>1970-01-01T01:00:00Z</time>
      </trkpt>
      <trkpt lat="56.280975" lon="13.282936">
        <ele>72.9091</ele>
        <time>1970-01-01T01:00:00Z</time>
      </trkpt>
      <trkpt lat="56.280982" lon="13.283106">
        <ele>73.1818</ele>
        <time>1970-01-01T01:00:00Z</time>
      </trkpt>
      <trkpt lat="56.280982" lon="13.283301">
        <ele>73.7273</ele>
        <time>1970-01-01T01:00:00Z</time>
      </trkpt>
      <trkpt lat="56.28095" lon="13.283468">
        <ele>74.2727</ele>
        <time>1970-01-01T01:00:00Z</time>
      </trkpt>
      <trkpt lat="56.280909" lon="13.28365">
        <ele>74.8182</ele>
        <time>1970-01-01T01:00:00Z</time>
      </trkpt>
      <trkpt lat="56.280878" lon="13.283824">
        <ele>75.3636</ele>
        <time>1970-01-01T01:00:00Z</time>
      </trkpt>
      <trkpt lat="56.280853" lon="13.284002">
        <ele>75.6364</ele>
        <time>1970-01-01T01:00:00Z</time>
      </trkpt>
      <trkpt lat="56.280856" lon="13.284176">
        <ele>75.9091</ele>
        <time>1970-01-01T01:00:00Z</time>
      </trkpt>
      <trkpt lat="56.280857" lon="13.284349">
        <ele>76.1818</ele>
        <time>1970-01-01T01:00:00Z</time>
      </trkpt>
      <trkpt lat="56.280855" lon="13.284531">
        <ele>76.8182</ele>
        <time>1970-01-01T01:00:00Z</time>
      </trkpt>
      <trkpt lat="56.280864" lon="13.284684">
        <ele>77.4545</ele>
        <time>1970-01-01T01:00:00Z</time>
      </trkpt>
      <trkpt lat="56.280808" lon="13.284565">
        <ele>78.0909</ele>
        <time>1970-01-01T01:00:00Z</time>
      </trkpt>
      <trkpt lat="56.280786" lon="13.284424">
        <ele>78.4545</ele>
        <time>1970-01-01T01:00:00Z</time>
      </trkpt>
      <trkpt lat="56.280791" lon="13.284572">
        <ele>78.8182</ele>
        <time>1970-01-01T01:00:00Z</time>
      </trkpt>
      <trkpt lat="56.280813" lon="13.284714">
        <ele>79.2727</ele>
        <time>1970-01-01T01:00:00Z</time>
      </trkpt>
      <trkpt lat="56.280805" lon="13.284872">
        <ele>79.7273</ele>
        <time>1970-01-01T01:00:00Z</time>
      </trkpt>
      <trkpt lat="56.280794" lon="13.285028">
        <ele>80.1818</ele>
        <time>1970-01-01T01:00:00Z</time>
      </trkpt>
      <trkpt lat="56.280796" lon="13.285194">
        <ele>80.6364</ele>
        <time>1970-01-01T01:00:00Z</time>
      </trkpt>
      <trkpt lat="56.280801" lon="13.285388">
        <ele>81.0909</ele>
        <time>1970-01-01T01:00:00Z</time>
      </trkpt>
      <trkpt lat="56.280824" lon="13.285546">
        <ele>81.5455</ele>
        <time>1970-01-01T01:00:00Z</time>
      </trkpt>
      <trkpt lat="56.280804" lon="13.285696">
        <ele>81.7273</ele>
        <time>1970-01-01T01:00:00Z</time>
      </trkpt>
      <trkpt lat="56.280751" lon="13.285806">
        <ele>81.9091</ele>
        <time>1970-01-01T01:00:00Z</time>
      </trkpt>
      <trkpt lat="56.280747" lon="13.285965">
        <ele>82.0909</ele>
        <time>1970-01-01T01:00:00Z</time>
      </trkpt>
      <trkpt lat="56.280752" lon="13.286141">
        <ele>82.2727</ele>
        <time>1970-01-01T01:00:00Z</time>
      </trkpt>
      <trkpt lat="56.280715" lon="13.286293">
        <ele>82.4545</ele>
        <time>1970-01-01T01:00:00Z</time>
      </trkpt>
      <trkpt lat="56.280694" lon="13.286461">
        <ele>82.4545</ele>
        <time>1970-01-01T01:00:00Z</time>
      </trkpt>
      <trkpt lat="56.280682" lon="13.286614">
        <ele>82.4545</ele>
        <time>1970-01-01T01:00:00Z</time>
      </trkpt>
      <trkpt lat="56.280677" lon="13.28677">
        <ele>82.4545</ele>
        <time>1970-01-01T01:00:00Z</time>
      </trkpt>
      <trkpt lat="56.280671" lon="13.286937">
        <ele>82.4545</ele>
        <time>1970-01-01T01:00:00Z</time>
      </trkpt>
      <trkpt lat="56.280656" lon="13.287113">
        <ele>82.4545</ele>
        <time>1970-01-01T01:00:00Z</time>
      </trkpt>
      <trkpt lat="56.280641" lon="13.287295">
        <ele>82.2727</ele>
        <time>1970-01-01T01:00:00Z</time>
      </trkpt>
      <trkpt lat="56.280632" lon="13.287451">
        <ele>82</ele>
        <time>1970-01-01T01:00:00Z</time>
      </trkpt>
      <trkpt lat="56.280659" lon="13.287597">
        <ele>81.7273</ele>
        <time>1970-01-01T01:00:00Z</time>
      </trkpt>
      <trkpt lat="56.280681" lon="13.287763">
        <ele>81.4545</ele>
        <time>1970-01-01T01:00:00Z</time>
      </trkpt>
      <trkpt lat="56.280697" lon="13.287915">
        <ele>80.9091</ele>
        <time>1970-01-01T01:00:00Z</time>
      </trkpt>
      <trkpt lat="56.280692" lon="13.288074">
        <ele>80.3636</ele>
        <time>1970-01-01T01:00:00Z</time>
      </trkpt>
      <trkpt lat="56.28064" lon="13.288189">
        <ele>79.9091</ele>
        <time>1970-01-01T01:00:00Z</time>
      </trkpt>
      <trkpt lat="56.280546" lon="13.288303">
        <ele>79.4545</ele>
        <time>1970-01-01T01:00:00Z</time>
      </trkpt>
      <trkpt lat="56.280482" lon="13.288414">
        <ele>79.2</ele>
        <time>1970-01-01T01:00:00Z</time>
      </trkpt>
      <trkpt lat="56.280416" lon="13.2885">
        <ele>78.8889</ele>
        <time>1970-01-01T01:00:00Z</time>
      </trkpt>
      <trkpt lat="56.280345" lon="13.288598">
        <ele>78.5</ele>
        <time>1970-01-01T01:00:00Z</time>
      </trkpt>
      <trkpt lat="56.28027" lon="13.288705">
        <ele>78.2857</ele>
        <time>1970-01-01T01:00:00Z</time>
      </trkpt>
      <trkpt lat="56.280198" lon="13.288801">
        <ele>78</ele>
        <time>1970-01-01T01:00:00Z</time>
      </trkpt>
    </trkseg>
  </trk>
</gpx>